Regional Weather Roundup
Issued by NWS

Home | Current Version | Previous Version | Graphics & Text | Print | Product List | Glossary Off
Versions: 1 2 3 4 5 6 7 8 9 10 11 12 13 14 15 16 17 18 19 20 21 22 23 24 25 26 27 28 29 30 31 32 33 34 35 36 37 38 39 40 41 42 43 44 45 46 47 48 49 50

000
ASUS43 KDMX 022307
RWRIA

WEATHER ROUNDUP FOR IOWA
NATIONAL WEATHER SERVICE DES MOINES IA
600 PM CDT TUE SEP 02 2014

NOTE: "FAIR" INDICATES FEW OR NO CLOUDS BELOW 12,000 FEET WITH NO
SIGNIFICANT WEATHER AND/OR OBSTRUCTIONS TO VISIBILITY.

* - THESE STATIONS ARE NOT NWS STATIONS...THUS NOT UNDER NWS
QUALITY CONTROL.  THEY ALSO DO NOT REPORT WEATHER SUCH
AS PRECIPITATION OR FOG.

IAZ001>003-012>014-020>022-031>034-043>046-030000-
   NORTHWEST IOWA

CITY           SKY/WX    TMP DP  RH WIND       PRES   REMARKS
CARROLL *      SUNNY     75  61  60 SW7       29.95F
CHEROKEE *     SUNNY     75  63  64 SW8       29.94F
DENISON *      SUNNY     75  59  57 SW6       29.93F
LE MARS *      SUNNY     77  59  53 SW8       29.94F
ORANGE CITY *  SUNNY     77  55  47 SW8       29.94F
SHELDON *      SUNNY     73  59  60 SW10      29.93F
SIOUX CITY     SUNNY     77  60  55 SW6       29.93F
SPENCER        MOSUNNY   76  58  53 SW8       29.94F
STORM LAKE *   SUNNY     73  64  73 SW7       29.95F
$$

IAZ055>058-069>071-079>083-090>094-030000-
   SOUTHWEST IOWA

CITY           SKY/WX    TMP DP  RH WIND       PRES   REMARKS
ATLANTIC *     SUNNY     77  59  53 W7        29.94F
AUDUBON *      SUNNY     79  63  57 W3        29.96F HX  80
CLARINDA *     SUNNY     81  61  50 W7        29.95S HX  81
COUNCIL BLFS * SUNNY     79  59  50 NW3       29.94F HX  80
CRESTON *      SUNNY     75  61  60 NW12      29.95F
HARLAN  *      SUNNY     75  61  60 W7        29.98F
LAMONI         SUNNY     79  60  52 NW8       29.94F HX  80
RED OAK *      SUNNY     79  59  50 NW7       29.94F HX  80
SHENANDOAH *   SUNNY     79  63  57 NW7       29.94F HX  80
$$

IAZ047>049-059>061-072>074-084-030000-
   CENTRAL IOWA

CITY           SKY/WX    TMP DP  RH WIND       PRES   REMARKS
AMES           SUNNY     77  58  51 W8        29.94S
ANKENY *       SUNNY     77  59  53 NW7       29.93F
CHARITON *     SUNNY     77  59  53 NW9       29.94S
DES MOINES     MOSUNNY   79  59  50 W8        29.92F HX  80
GRINNELL*      SUNNY     75  59  57 W6        29.94F
KNOXVILLE *    SUNNY     77  61  57 NW7       29.92F
MARSHALLTOWN   SUNNY     77  58  51 W7        29.93F
PELLA *        SUNNY     79  61  53 NW6       29.94F HX  80
PERRY *          N/A     77  59  53 W7        29.94F
$$

IAZ004>006-015-016-023>025-035-036-030000-
   NORTH CENTRAL IOWA

CITY           SKY/WX    TMP DP  RH WIND       PRES   REMARKS
ALGONA *       SUNNY     77  59  53 W9        29.94F
CLARION *      SUNNY     75  59  57 W10       29.94S
ESTHERVILLE    SUNNY     74  58  57 SW8       29.93F
FORT DODGE *   SUNNY     75  61  60 W8        29.95F
MASON CITY     SUNNY     76  57  51 W10       29.94F
FOREST CITY *  SUNNY     75  57  53 W6        29.93F
IOWA FALLS *     N/A     75  57  53 W7        29.95S
$$

IAZ007>011-017>019-026>030-037>042-050>054-066-030000-
   NORTHEAST IOWA

CITY           SKY/WX    TMP DP  RH WIND       PRES   REMARKS
CEDAR RAPIDS   MOSUNNY   77  59  53 NW9       29.92F
CHARLES CITY * SUNNY     75  57  53 W10       29.93F
CLINTON *      SUNNY     77  61  57 NW8       29.93F
DECORAH *      SUNNY     75  57  53 VRB7G13   29.92S
DUBUQUE        SUNNY     75  59  57 NW8       29.93F
MONTICELLO *   SUNNY     77  59  53 NW8       29.92S
OELWEIN *      SUNNY     75  57  53 W9        29.94F
WATERLOO       MOSUNNY   77  57  50 W7        29.92S
$$

IAZ064-065-067-068-078-030000-
   EAST CENTRAL IOWA

CITY           SKY/WX    TMP DP  RH WIND       PRES   REMARKS
DAVENPORT      SUNNY     77  61  57 W9        29.92F
IOWA CITY      SUNNY     78  59  51 W9        29.92F
MT. PLEASANT * SUNNY     81  55  41 NW8       29.92F HX  80
MUSCATINE *    SUNNY     79  61  53 W7G13     29.91F HX  80
QUAD CITIES    SUNNY     80  60  50 W10       29.90F HX  81
$$

IAZ062-063-075>077-085>089-095>099-030000-
   SOUTHEAST IOWA

CITY           SKY/WX    TMP DP  RH WIND       PRES   REMARKS
BURLINGTON     LGT RAIN  80  61  52 W6        29.92F HX  81
FAIRFIELD *    SUNNY     77  61  57 NW7G13    29.93F
FORT MADISON * SUNNY     81  61  50 W3        29.93S HX  81
KEOKUK *       SUNNY     81  63  54 NW7       29.92S HX  82
OSKALOOSA *      N/A     77  63  61 NW6       29.93F
CENTERVILLE *  SUNNY     77  63  61 W6        29.95S
OTTUMWA        SUNNY     77  60  55 NW7       29.92S
WASHINGTON *   SUNNY     77  63  61 NW8       29.92F
$$

ABBREVIATIONS USED IN REMARKS
   TC - TEMPERATURES IN CELSIUS
  WCI - WIND CHILL INDEX
   HX - HEAT INDEX
  VSB - VISIBILITY
$$




USA.gov is the U.S. government's official web portal to all federal, state and local government web resources and services.